Location: Hoyos del Collado
(40.3594°N, 5.2003°W)
Time: 12:31:59
(UTC+00:00)

ISS - Pass Details

Date: 30 June 2024
Orbit: 410 x 424 km, 51.6° (Epoch: 13 July)

Event Time Altitude Azimuth Distance (km) Brightness Sun altitude
Exits shadow 02:34:21 18° 299° (WNW) 1,098 -1.7 -19.7°
Maximum altitude 02:35:47 24° 337° (NNW) 916 -1.7 -19.5°
Drops below altitude 10° 02:38:33 10° 33° (NNE) 1,491 0.3 -19.3°
Sets 02:40:56 0° 48° (NE) 2,360 1.5 -19.0°
